Regional Weather Roundup
Issued by NWS

Home | Current Version | Previous Version | Graphics & Text | Print | Product List | Glossary On
Versions: 1 2 3 4 5 6 7 8 9 10 11 12 13 14 15 16 17 18 19 20 21 22 23 24 25 26 27 28 29 30 31 32 33 34 35 36 37 38 39 40 41 42 43 44 45 46 47 48 49 50
000
ASUS43 KOAX 092202
RWRNE

WEATHER ROUNDUP FOR NEBRASKA
NATIONAL WEATHER SERVICE OMAHA NE
400 PM CST TUE FEB 09 2016

NOTES: SATELLITE DATA IS BEING USED TO AUGMENT CLOUD COVER ABOVE
       12000 FEET.
       "FAIR" INDICATES FEW OR NO CLOUDS BELOW 12,000 FEET WITH NO
       SIGNIFICANT WEATHER AND/OR OBSTRUCTIONS TO VISIBILITY.

  * THESE STATIONS DO NOT REPORT WEATHER SUCH AS RAIN...SNOW OR FOG.

NEZ001>004-019>022-054>056-092300-
NEBRASKA PANHANDLE

CITY           SKY/WX    TMP DP  RH WIND       PRES   REMARKS
SCOTTSBLUFF    SUNNY     52  34  50 NW12G22   30.21S
ALLIANCE       CLOUDY    37  32  82 W10       30.17F WCI  30
CHADRON        MOSUNNY   51  33  50 W15       30.15F
KIMBALL        CLOUDY    46  32  56 W16       30.24
SIDNEY         CLOUDY    42  31  64 NW14      30.22S
$$

NEZ057>060-069>072-079>082-092300-
SOUTHWEST NEBRASKA

CITY           SKY/WX    TMP DP  RH WIND       PRES   REMARKS
NORTH PLATTE   CLOUDY    35  20  54 SW6       30.20F WCI  30
IMPERIAL       CLOUDY    43  30  60 NW6       30.21S
LEXINGTON      CLOUDY    32  18  56 CALM      30.23F
MCCOOK         CLOUDY    36  22  56 SW7       30.23F WCI  30
$$

NEZ005>010-023>029-035>040-094-092300-
NORTH CENTRAL NEBRASKA

CITY           SKY/WX    TMP DP  RH WIND       PRES   REMARKS
VALENTINE      CLOUDY    37  22  54 SW8       30.15F WCI  31
AINSWORTH      CLOUDY    34  18  52 SW8       30.17F WCI  27
BROKEN BOW     PTSUNNY   31  16  54 SW3       30.21F
ORD            MOSUNNY   28  14  55 W9        30.23S WCI  19
$$

NEZ041-046>049-061>064-073>077-083>087-092300-
SOUTH CENTRAL NEBRASKA

CITY           SKY/WX    TMP DP  RH WIND       PRES   REMARKS
GRAND ISLAND   CLOUDY    27  12  53 NW7       30.27S WCI  19
AURORA         CLOUDY    28  13  53 NW8       30.26S WCI  19
HASTINGS       CLOUDY    27  11  51 NW7       30.26S WCI  19
HEBRON         PTSUNNY   28  11  48 N12       30.29S WCI  18
YORK           CLOUDY    28  14  54 NW10      30.25F WCI  19
$$

NEZ011>018-030>034-042>045-092300-
NORTHEAST NEBRASKA

CITY           SKY/WX    TMP DP  RH WIND       PRES   REMARKS
NORFOLK        CLOUDY    29  14  53 NW10      30.22S WCI  20
ALBION         MOSUNNY   28  12  50 NW9       30.24S WCI  20
BLAIR          SUNNY     22  12  63 NW13      30.23S WCI  10
COLUMBUS *     CLOUDY    27   9  46 NW12      30.25S WCI  16
FREMONT        MOSUNNY   25  11  57 N6        30.25F WCI  18
TEKAMAH        SUNNY     40  11  30 NW15      30.26S WCI  32
$$

NEZ050>053-065>068-078-088>093-092300-
SOUTHEAST NEBRASKA

CITY           SKY/WX    TMP DP  RH WIND       PRES   REMARKS
LINCOLN        SUNNY     28  12  51 NW13      30.27S WCI  17
OMAHA EPPLEY   MOSUNNY   23  10  57 NW16      30.25R WCI  10
BEATRICE       SUNNY     28  11  49 NW15      30.28R WCI  17
FALLS CITY     SUNNY     26   6  42 NW15G22   30.25R WCI  14
NEBRASKA CITY  SUNNY     25   7  47 N16       30.24R WCI  12
$$

NEZ044-045-051>053-067-092300-
OMAHA AREA

CITY           SKY/WX    TMP DP  RH WIND       PRES   REMARKS
OMAHA EPPLEY   MOSUNNY   23  10  57 NW16      30.25R WCI  10
BLAIR          SUNNY     22  12  63 NW13      30.23S WCI  10
FREMONT        MOSUNNY   25  11  57 N6        30.25F WCI  18
OFFUTT AFB     SUNNY     24   7  49 NW16      30.25R WCI  11
WAHOO          FAIR      25  13  61 N9        30.25S WCI  15
$$



USA.gov is the U.S. government's official web portal to all federal, state and local government web resources and services.